Wisconsin Dells, Wisconsin, United States (53965)
Lat: 43.63N, Lon: 89.77W
Wx Zone: WIZ057
Local Info
Past Weather Observations for Saturday, August 16, 2014

NOTE: This archive is for the closest National Weather Service station to Wisconsin Dells. Information may differ from the station used for current weather conditions.

Click here for Long-term Archive

Time Weather Temperature Dewpoint Humidity Pressure Winds Precip Visibility
23:55
Overcast
64°F / 18°C 63°F / 17°C 94% 29.98 in
(1015 mb)
ENE 10.4 mph
(ENE 17 kph)
- 10SM
23:35
Overcast
66°F / 19°C 63°F / 17°C 88% 29.98 in
(1015 mb)
ENE 6.9 mph
(ENE 11 kph)
- 10SM
23:15
Overcast
66°F / 19°C 63°F / 17°C 88% 29.95 in
(1014 mb)
ENE 11.5 mph
(ENE 19 kph)
- 10SM
22:55
Overcast
Drizzle
68°F / 20°C 64°F / 18°C 88% 29.95 in
(1014 mb)
ENE 10.4 mph
(ENE 17 kph)
- 7SM
22:35
Overcast
70°F / 21°C 68°F / 20°C 94% 29.95 in
(1014 mb)
ENE 9.2 mph
(ENE 15 kph)
- 7SM
22:15
Overcast
72°F / 22°C 68°F / 20°C 88% 29.95 in
(1014 mb)
ENE 9.2 mph
(ENE 15 kph)
- 10SM
21:55
Overcast
72°F / 22°C 66°F / 19°C 83% 29.92 in
(1013 mb)
ENE 9.2 mph
(ENE 15 kph)
- 10SM
21:35
Overcast
73°F / 23°C 66°F / 19°C 78% 29.92 in
(1013 mb)
ENE 9.2 mph
(ENE 15 kph)
- 10SM
21:15
Overcast
Drizzle
73°F / 23°C 66°F / 19°C 78% 29.92 in
(1013 mb)
ENE 8.1 mph
(ENE 13 kph)
- 10SM
20:55
Overcast
75°F / 24°C 66°F / 19°C 74% 29.92 in
(1013 mb)
NE 6.9 mph
(NE 11 kph)
- 10SM
20:35
Mostly Cloudy
72°F / 22°C 66°F / 19°C 83% 29.92 in
(1013 mb)
Calm - 10SM
20:15
Clear
73°F / 23°C 64°F / 18°C 74% 29.92 in
(1013 mb)
W 3.5 mph
(W 6 kph)
- 10SM
19:55
Clear
73°F / 23°C 64°F / 18°C 74% 29.89 in
(1012 mb)
Calm - 10SM
19:35
Clear
75°F / 24°C 64°F / 18°C 69% 29.89 in
(1012 mb)
Calm - 10SM
19:15
Clear
75°F / 24°C 64°F / 18°C 69% 29.89 in
(1012 mb)
W 4.6 mph
(W 7 kph)
- 10SM
18:55
Clear
77°F / 25°C 64°F / 18°C 65% 29.89 in
(1012 mb)
SSW 3.5 mph
(SSW 6 kph)
- 10SM
18:35
Clear
79°F / 26°C 64°F / 18°C 61% 29.89 in
(1012 mb)
SSW 3.5 mph
(SSW 6 kph)
- 10SM
18:15
Clear
79°F / 26°C 64°F / 18°C 61% 29.89 in
(1012 mb)
SW 4.6 mph
(SW 7 kph)
- 10SM
17:55
Partly Cloudy
81°F / 27°C 64°F / 18°C 58% 29.89 in
(1012 mb)
SSW 5.8 mph
(SSW 9 kph)
- 10SM
17:35
Partly Cloudy
82°F / 28°C 63°F / 17°C 51% 29.89 in
(1012 mb)
SSW 6.9 mph
(SSW 11 kph)
- 10SM
17:15
Mostly Cloudy
82°F / 28°C 64°F / 18°C 55% 29.89 in
(1012 mb)
SSW 6.9 mph
(SSW 11 kph)
- 10SM
16:55
Mostly Cloudy
82°F / 28°C 64°F / 18°C 55% 29.89 in
(1012 mb)
SSW 6.9 mph
(SSW 11 kph)
- 10SM
16:35
Mostly Cloudy
82°F / 28°C 64°F / 18°C 55% 29.89 in
(1012 mb)
SSW 9.2 mph
(SSW 15 kph)
- 10SM
16:15
Mostly Cloudy
84°F / 29°C 64°F / 18°C 51% 29.89 in
(1012 mb)
SW 8.1 mph
(SW 13 kph)
- 10SM
15:55
Partly Cloudy
84°F / 29°C 64°F / 18°C 51% 29.89 in
(1012 mb)
SW 10.4 mph
(SW 17 kph)
- 10SM
15:35
Clear
84°F / 29°C 64°F / 18°C 51% 29.89 in
(1012 mb)
SSW 8.1 mph
(SSW 13 kph)
- 10SM
15:15
Clear
84°F / 29°C 63°F / 17°C 48% 29.89 in
(1012 mb)
SSW 6.9 mph
(SSW 11 kph)
- 10SM
14:55
Partly Cloudy
84°F / 29°C 63°F / 17°C 48% 29.89 in
(1012 mb)
SSW 4.6 mph
(SSW 7 kph)
- 10SM
14:40
Mostly Cloudy
84°F / 29°C 63°F / 17°C 48% 29.89 in
(1012 mb)
SSW 5.8 mph
(SSW 9 kph)
- 10SM
14:15
Mostly Cloudy
82°F / 28°C 63°F / 17°C 51% 29.89 in
(1012 mb)
W 6.9 mph
(W 11 kph)
- 10SM
13:55
Mostly Cloudy
81°F / 27°C 63°F / 17°C 54% 29.89 in
(1012 mb)
WNW 3.5 mph
(WNW 6 kph)
- 10SM
13:35
Partly Cloudy
82°F / 28°C 63°F / 17°C 51% 29.89 in
(1012 mb)
WNW 6.9 mph
(WNW 11 kph)
- 10SM
13:15
Mostly Cloudy
82°F / 28°C 64°F / 18°C 55% 29.89 in
(1012 mb)
SW 10.4 mph
(SW 17 kph)
- 10SM
12:55
Overcast
82°F / 28°C 64°F / 18°C 55% 29.89 in
(1012 mb)
SSW 9.2 mph
(SSW 15 kph)
- 10SM
12:35
Mostly Cloudy
81°F / 27°C 64°F / 18°C 58% 29.89 in
(1012 mb)
SW 5.8 mph
(SW 9 kph)
- 10SM
12:15
Mostly Cloudy
81°F / 27°C 63°F / 17°C 54% 29.89 in
(1012 mb)
SSW 8.1 mph
(SSW 13 kph)
- 10SM
11:55
Mostly Cloudy
79°F / 26°C 64°F / 18°C 61% 29.92 in
(1013 mb)
SW 4.6 mph
(SW 7 kph)
- 10SM
11:35
Mostly Cloudy
79°F / 26°C 63°F / 17°C 58% 29.92 in
(1013 mb)
SW 6.9 mph
(SW 11 kph)
- 10SM
11:15
Overcast
79°F / 26°C 63°F / 17°C 58% 29.92 in
(1013 mb)
SSW 6.9 mph
(SSW 11 kph)
- 10SM
10:55
Mostly Cloudy
79°F / 26°C 63°F / 17°C 58% 29.92 in
(1013 mb)
SSW 6.9 mph
(SSW 11 kph)
- 10SM
10:35
Partly Cloudy
79°F / 26°C 63°F / 17°C 58% 29.92 in
(1013 mb)
SSW 3.5 mph
(SSW 6 kph)
- 10SM
10:15
Partly Cloudy
77°F / 25°C 63°F / 17°C 61% 29.92 in
(1013 mb)
SSW 6.9 mph
(SSW 11 kph)
- 10SM
09:55
Clear
77°F / 25°C 63°F / 17°C 61% 29.92 in
(1013 mb)
WNW 5.8 mph
(WNW 9 kph)
- 10SM
09:35
Clear
75°F / 24°C 63°F / 17°C 65% 29.92 in
(1013 mb)
W 6.9 mph
(W 11 kph)
- 10SM
09:15
Clear
73°F / 23°C 63°F / 17°C 69% 29.92 in
(1013 mb)
W 5.8 mph
(W 9 kph)
- 10SM
08:55
Partly Cloudy
72°F / 22°C 63°F / 17°C 73% 29.92 in
(1013 mb)
Calm - 10SM
08:35
Partly Cloudy
72°F / 22°C 63°F / 17°C 73% 29.92 in
(1013 mb)
W 6.9 mph
(W 11 kph)
- 10SM
08:15
Partly Cloudy
70°F / 21°C 63°F / 17°C 78% 29.92 in
(1013 mb)
SSW 6.9 mph
(SSW 11 kph)
- 10SM
07:55
Mostly Cloudy
66°F / 19°C 63°F / 17°C 88% 29.92 in
(1013 mb)
W 5.8 mph
(W 9 kph)
- 7SM
07:35
Overcast
Fog And Mist
64°F / 18°C 63°F / 17°C 94% 29.92 in
(1013 mb)
SSW 6.9 mph
(SSW 11 kph)
- 4SM
07:15
Overcast
Fog And Mist
64°F / 18°C 63°F / 17°C 94% 29.92 in
(1013 mb)
SSW 5.8 mph
(SSW 9 kph)
- 3SM
06:55
Overcast
Fog
64°F / 18°C 63°F / 17°C 94% 29.92 in
(1013 mb)
SSW 4.6 mph
(SSW 7 kph)
- 1/4SM
06:35
Overcast
Fog
64°F / 18°C 63°F / 17°C 94% 29.92 in
(1013 mb)
SSW 3.5 mph
(SSW 6 kph)
- 1/4SM
06:15
Overcast
Fog
63°F / 17°C 61°F / 16°C 94% 29.92 in
(1013 mb)
SSW 5.8 mph
(SSW 9 kph)
- 1/4SM
05:55
Overcast
Fog
63°F / 17°C 61°F / 16°C 94% 29.92 in
(1013 mb)
SW 5.8 mph
(SW 9 kph)
- 1/4SM
05:35
Overcast
Fog
63°F / 17°C 61°F / 16°C 94% 29.92 in
(1013 mb)
SW 3.5 mph
(SW 6 kph)
- 1/4SM
05:15
Overcast
Fog And Mist
63°F / 17°C 61°F / 16°C 94% 29.92 in
(1013 mb)
SSW 3.5 mph
(SSW 6 kph)
- 3/4SM
04:55
Overcast
Fog And Mist
63°F / 17°C 61°F / 16°C 94% 29.92 in
(1013 mb)
SSW 4.6 mph
(SSW 7 kph)
- 2SM
04:35
Overcast
Fog And Mist
63°F / 17°C 61°F / 16°C 94% 29.92 in
(1013 mb)
SW 4.6 mph
(SW 7 kph)
- 3SM
04:15
Mostly Cloudy
Fog And Mist
63°F / 17°C 61°F / 16°C 94% 29.92 in
(1013 mb)
SSW 4.6 mph
(SSW 7 kph)
- 4SM
03:55
Partly Cloudy
Fog And Mist
63°F / 17°C 59°F / 15°C 88% 29.92 in
(1013 mb)
Calm - 5SM
03:35
Clear
Fog And Mist
63°F / 17°C 59°F / 15°C 88% 29.92 in
(1013 mb)
SSW 4.6 mph
(SSW 7 kph)
- 5SM
03:15
Clear
Fog And Mist
63°F / 17°C 59°F / 15°C 88% 29.92 in
(1013 mb)
SSW 3.5 mph
(SSW 6 kph)
- 5SM
02:55
Clear
63°F / 17°C 61°F / 16°C 94% 29.92 in
(1013 mb)
SW 5.8 mph
(SW 9 kph)
- 7SM
02:35
Clear
63°F / 17°C 61°F / 16°C 94% 29.92 in
(1013 mb)
SW 6.9 mph
(SW 11 kph)
- 7SM
02:15
Clear
63°F / 17°C 59°F / 15°C 88% 29.89 in
(1012 mb)
SW 3.5 mph
(SW 6 kph)
- 10SM
01:55
Clear
63°F / 17°C 61°F / 16°C 94% 29.89 in
(1012 mb)
SW 4.6 mph
(SW 7 kph)
- 10SM
01:35
Clear
63°F / 17°C 59°F / 15°C 88% 29.92 in
(1013 mb)
SW 3.5 mph
(SW 6 kph)
- 10SM
01:15
Clear
63°F / 17°C 61°F / 16°C 94% 29.92 in
(1013 mb)
SW 4.6 mph
(SW 7 kph)
- 10SM
00:55
Clear
63°F / 17°C 61°F / 16°C 94% 29.92 in
(1013 mb)
SW 4.6 mph
(SW 7 kph)
- 10SM
00:35
Clear
63°F / 17°C 61°F / 16°C 94% 29.92 in
(1013 mb)
SSW 3.5 mph
(SSW 6 kph)
- 10SM
00:15
Clear
63°F / 17°C 61°F / 16°C 94% 29.92 in
(1013 mb)
Calm - 10SM
Time Weather Temperature Dewpoint Humidity Pressure Winds Precip Visibility


Weather for websites

WeatherForYou.com, LLC is not responsible for any damages or problems caused by this service. Current weather conditions are obtained from the closest station including government and personal stations which may have varying degrees of accuracy. Weather forecasts are derived from the NOAA NDFD. Like all things, this site belongs to Jesus Christ... He just trusts me to maintain it. If you have any questions or comments email webmaster@weatherforyou.com

Copyright © 2014, WeatherForYou.com LLC. All rights reserved.